TimeEST,TemperatureF,Dew PointF,Humidity,Sea Level PressureIn,VisibilityMPH,Wind Direction,Wind SpeedMPH,Gust SpeedMPH,PrecipitationIn,Events,Conditions,WindDirDegrees,DateUTC
12:51 AM,35.1,23.0,61,30.03,10.0,NE,10.4,-,N/A,,Overcast,40,2013-01-18 05:51:00
1:51 AM,33.1,21.9,64,30.07,10.0,NNE,12.7,-,N/A,,Overcast,20,2013-01-18 06:51:00
2:51 AM,30.9,19.0,61,30.10,10.0,North,12.7,-,N/A,,Overcast,10,2013-01-18 07:51:00
3:51 AM,30.0,17.1,59,30.10,10.0,NNE,9.2,-,N/A,,Overcast,20,2013-01-18 08:51:00
4:51 AM,30.0,17.1,59,30.14,10.0,North,5.8,-,N/A,,Scattered Clouds,360,2013-01-18 09:51:00
5:51 AM,30.0,16.0,56,30.20,10.0,NNW,12.7,-,N/A,,Mostly Cloudy,340,2013-01-18 10:51:00
6:51 AM,28.9,15.1,56,30.25,10.0,North,12.7,-,N/A,,Overcast,350,2013-01-18 11:51:00
7:51 AM,28.0,12.9,53,30.31,10.0,NNW,21.9,32.2,N/A,,Mostly Cloudy,330,2013-01-18 12:51:00
8:51 AM,28.4,8.6,43,30.36,10.0,NNW,16.1,24.2,N/A,Snow,Light Snow,340,2013-01-18 13:51:00
9:51 AM,28.9,7.0,40,30.42,10.0,NW,16.1,26.5,0.00,,Scattered Clouds,310,2013-01-18 14:51:00
10:51 AM,30.0,5.0,35,30.44,10.0,NNW,15.0,-,N/A,,Scattered Clouds,330,2013-01-18 15:51:00
11:51 AM,30.9,7.0,37,30.44,10.0,WNW,12.7,21.9,N/A,,Scattered Clouds,300,2013-01-18 16:51:00
12:51 PM,30.9,5.0,33,30.43,10.0,WNW,10.4,-,N/A,,Partly Cloudy,300,2013-01-18 17:51:00
1:51 PM,30.9,1.9,29,30.44,10.0,NNW,16.1,24.2,N/A,,Partly Cloudy,340,2013-01-18 18:51:00
2:51 PM,30.9,3.0,31,30.44,10.0,NNW,9.2,16.1,N/A,,Partly Cloudy,330,2013-01-18 19:51:00
3:51 PM,30.9,1.9,29,30.44,10.0,NW,10.4,-,N/A,,Scattered Clouds,310,2013-01-18 20:51:00
4:51 PM,28.9,1.9,32,30.46,10.0,West,10.4,-,N/A,,Partly Cloudy,270,2013-01-18 21:51:00
5:51 PM,28.9,3.0,33,30.48,10.0,WSW,8.1,-,N/A,,Partly Cloudy,250,2013-01-18 22:51:00
6:51 PM,27.0,5.0,39,30.49,10.0,SW,5.8,-,N/A,,Partly Cloudy,220,2013-01-18 23:51:00
7:51 PM,28.0,8.1,43,30.49,10.0,SSW,8.1,-,N/A,,Partly Cloudy,200,2013-01-19 00:51:00
8:51 PM,28.9,9.0,43,30.46,10.0,South,8.1,-,N/A,,Partly Cloudy,180,2013-01-19 01:51:00
9:51 PM,28.0,10.9,49,30.47,10.0,SSW,6.9,-,N/A,,Partly Cloudy,210,2013-01-19 02:51:00
10:51 PM,28.4,10.4,47,30.44,10.0,South,8.1,-,N/A,,Scattered Clouds,190,2013-01-19 03:51:00
11:51 PM,28.9,12.0,49,30.40,10.0,South,9.2,-,N/A,,Scattered Clouds,180,2013-01-19 04:51:00